Location: Adrasan
(36.3319°N, 30.4314°E)
Time: 12:50:18
(UTC+00:00)

Cosmos 1417 Rocket - Pass Details

Date: 09 December 2023
Orbit: 950 x 999 km, 83.0° (Epoch: 20 February)

Event Time Altitude Azimuth Distance (km) Brightness Sun altitude
Rises 16:29:10 0° 356° (N) 3,709 7.4 -20.8°
Reaches altitude 10° 16:31:43 10° 359° (N) 2,762 6.7 -21.3°
Maximum altitude 16:38:02 67° 82° (E) 1,074 4.4 -22.5°
Drops below altitude 10° 16:44:21 10° 165° (SSE) 2,759 6.8 -23.7°
Sets 16:46:53 0° 168° (SSE) 3,704 7.5 -24.2°
